[[{"header":{"parameterUnit":"m.s-1","parameterCategory":1,"la1":30.2991,"la2":30.254,"lo1":-89.0895,"lo2":-89.0444,"dy":0.0017,"dx":0.0017,"nx":28,"ny":28,"refTime":"2024-07-16T09:00:00:Z","depth":0,"parameterNumber":2,"parameterNumberName":"U-component_of_WINDS"},"data":[0,0,0,0,0,0,0,0,0,0,0,0,0,0,0,0,0,0,0,0,0,0,0,0,0,0,0,0,0,0,0,0,0,0,0,0,0,0,0,0,0,0,0,0,0,0,0,0,0,0,0,0,0,0,0,0,0,0,0.1971,0.1972,0,0.2064,0.2065,0.2066,0.2116,0.2116,0.2117,0.2117,0.2211,0.2213,0.2216,0,0,0,0,0,0,0,0,0,0,0,0,0,0.1834,0.1836,0.1971,0.1972,0.1973,0.2064,0.2065,0.2067,0.2116,0.2116,0.2117,0.2117,0.221,0.2213,0.2216,0,0,0,0,0,0,0,0,0,0,0,0,0,0.1907,0.1837,0.1971,0.2009,0.2013,0.2064,0.2065,0.2067,0.2116,0.2116,0.2117,0.2117,0.2209,0.2213,0.2216,0.2235,0,0,0.2227,0.2229,0,0,0,0,0,0,0,0,0.1903,0.1912,0.2002,0.2007,0.2012,0.2079,0.2052,0.2123,0.2116,0.2077,0.2117,0.2117,0.2167,0.2174,0.2191,0.2239,0.2243,0.2228,0.223,0.2231,0.2232,0,0,0,0,0,0,0,0.1898,0.1908,0.2008,0.2004,0.2009,0.2021,0.2031,0.2065,0.212,0.2081,0.2085,0.2095,0.2169,0.2187,0.2193,0.2245,0.2227,0.2231,0.2233,0.2234,0.2312,0.2312,0,0,0,0,0,0,0.1887,0.1904,0.2005,0.2011,0.1956,0.2023,0.2035,0.2057,0.212,0.2129,0.2095,0.2097,0.2181,0.2189,0.2197,0.2223,0.2231,0.2235,0.2237,0.2313,0.2312,0.2312,0,0,0,0,0,0,0.1883,0.1895,0.2001,0.1958,0.1973,0.2025,0.205,0.2059,0.2077,0.213,0.214,0.2103,0.2182,0.2192,0.2225,0.2226,0.2236,0.2239,0.2313,0.2312,0.2312,0.2274,0,0,0,0,0,0,0.1879,0.1894,0.1902,0.1958,0.1975,0.2028,0.205,0.206,0.2083,0.2087,0.2141,0.215,0.2182,0.2219,0.2229,0.2232,0.2242,0.2313,0.2313,0.2312,0.2275,0.2272,0.227,0,0,0,0,0,0.1874,0.1887,0.1902,0.1914,0.1986,0.2028,0.2038,0.2075,0.2083,0.2091,0.2125,0.2148,0.2225,0.2222,0.2233,0.2237,0.2313,0.2313,0.2312,0.2276,0.2273,0.227,0,0,0,0,0,0,0.183,0.1896,0.1913,0.1944,0.198,0.2036,0.2048,0.207,0.2104,0.2106,0.2151,0.2163,0.2191,0.2218,0.2214,0.2258,0.2271,0.2273,0.224,0.2237,0.2235,0.2228,0.2245,0,0,0,0,0,0.1824,0.1853,0.1909,0.1931,0.1948,0.1995,0.2015,0.204,0.2079,0.2094,0.2131,0.2167,0.22,0.222,0.2253,0.2279,0.2291,0.2287,0.2285,0.2282,0.2283,0.2299,0.2297,0.2312,0.2312,0.2312,0,0,0.1812,0.1851,0.1867,0.1923,0.1954,0.1982,0.2007,0.2037,0.2058,0.2099,0.2132,0.216,0.2204,0.2233,0.2248,0.2256,0.2282,0.2282,0.228,0.2282,0.2298,0.2297,0.2295,0.2312,0.2312,0.2312,0,0,0.1804,0.1837,0.1859,0.1889,0.1936,0.1966,0.1971,0.2024,0.2044,0.2079,0.211,0.2135,0.219,0.222,0.2242,0.2244,0.2266,0.2253,0.224,0.2254,0.2253,0.2252,0.2252,0.2251,0.2254,0.2254,0.2254,0,0.1782,0.1827,0.1867,0.1895,0.1918,0.1957,0.1979,0.2006,0.206,0.2075,0.2083,0.2152,0.2184,0.2221,0.2221,0.2238,0.2245,0.2247,0.225,0.2249,0.2249,0.2249,0.2249,0.2252,0.2252,0.2253,0.2253,0,0.1798,0.1829,0.1841,0.1893,0.1918,0.1942,0.1985,0.2005,0.2028,0.2058,0.2092,0.2131,0.2172,0.2183,0.2206,0.2223,0.2226,0.2241,0.2255,0.2245,0.2246,0.2247,0.2249,0.225,0.2251,0.2251,0,0,0.1766,0.1839,0.1842,0.1866,0.192,0.1944,0.1969,0.201,0.2026,0.2061,0.2084,0.2129,0.2143,0.2168,0.2194,0.2207,0.2205,0.2221,0.2222,0.2216,0.2224,0.2212,0.2212,0.222,0.222,0.222,0.2221,0,0.1765,0.1814,0.185,0.1885,0.1913,0.1949,0.1971,0.2006,0.2034,0.2061,0.2092,0.2123,0.214,0.2155,0.2169,0.2202,0.2207,0.2203,0.224,0.2241,0.2228,0.2213,0.22,0.2199,0.2221,0.2222,0.2222,0,0.1771,0.1806,0.1843,0.1893,0.1906,0.1925,0.1965,0.1991,0.203,0.205,0.2077,0.2104,0.2132,0.2143,0.2182,0.2178,0.2195,0.2213,0.2214,0.2219,0.223,0.2216,0.22,0.2199,0.2223,0.2223,0.2223,0,0.1742,0.1798,0.1828,0.1847,0.1906,0.1919,0.1944,0.1984,0.2005,0.2039,0.2054,0.209,0.211,0.2138,0.2174,0.2179,0.2208,0.2222,0.2224,0.2223,0.2229,0.2228,0.2214,0.2241,0.2241,0.2241,0.2241,0,0.1738,0.1759,0.1816,0.1834,0.1858,0.1899,0.1922,0.195,0.1985,0.2009,0.2042,0.2063,0.211,0.2136,0.2165,0.2192,0.2201,0.2217,0.2224,0.2213,0.2211,0.2225,0.2226,0.2241,0.2241,0.2241,0.2241,0,0.171,0.1749,0.1784,0.1836,0.185,0.1866,0.1911,0.1929,0.1959,0.1988,0.1997,0.2043,0.2076,0.2115,0.216,0.2179,0.2203,0.2214,0.219,0.2194,0.2193,0.2193,0.2188,0.2189,0.2215,0.2214,0.2214,0,0.1704,0.1722,0.1776,0.1794,0.1819,0.1848,0.187,0.191,0.1932,0.1978,0.199,0.2026,0.2056,0.2107,0.2144,0.2178,0.219,0.2186,0.2196,0.2184,0.2189,0.2188,0.2189,0.2183,0.2183,0.2182,0.2182,0,0.169,0.1708,0.1739,0.1776,0.1802,0.1833,0.1866,0.1878,0.1925,0.1948,0.1982,0.2005,0.2051,0.2086,0.2125,0.215,0.2173,0.2179,0.2181,0.217,0.2155,0.2162,0.2182,0.2179,0.2179,0.2179,0.2179,0.218,0.1673,0.1689,0.173,0.1763,0.1792,0.1821,0.1841,0.1873,0.1902,0.1943,0.1965,0.1998,0.2036,0.2091,0.2115,0.2141,0.215,0.2153,0.2154,0.2154,0.215,0.2151,0.2149,0.2149,0.2149,0.2149,0.2149,0,0.1659,0.1687,0.1717,0.1762,0.1787,0.1807,0.1844,0.1864,0.1893,0.1927,0.1956,0.1994,0.2027,0.2067,0.2103,0.2116,0.2127,0.2124,0.2123,0.2128,0.2141,0.2136,0.2114,0.2114,0.2114,0.2114,0.2114,0.2114,0.1655,0.1684,0.1707,0.175,0.1778,0.1811,0.183,0.1857,0.1884,0.1925,0.1953,0.1979,0.2015,0.2053,0.2084,0.2095,0.2106,0.2099,0.2112,0.2124,0.2127,0.213,0.2125,0.2101,0.2101,0.2097,0.2097,0.2097]},{"header":{"parameterUnit":"m.s-1","parameterCategory":1,"la1":30.2991,"la2":30.254,"lo1":-89.0895,"lo2":-89.0444,"dy":0.0017,"dx":0.0017,"nx":28,"ny":28,"refTime":"2024-07-16T09:00:00:Z","depth":0,"parameterNumber":3,"parameterNumberName":"V-component_of_WINDS"},"data":[0,0,0,0,0,0,0,0,0,0,0,0,0,0,0,0,0,0,0,0,0,0,0,0,0,0,0,0,0,0,0,0,0,0,0,0,0,0,0,0,0,0,0,0,0,0,0,0,0,0,0,0,0,0,0,0,0,0,4.9871,4.987,0,4.9821,4.9821,4.982,4.975,4.9749,4.9748,4.9747,4.9695,4.9694,4.9694,0,0,0,0,0,0,0,0,0,0,0,0,0,4.9904,4.9903,4.9871,4.987,4.987,4.9821,4.9821,4.982,4.975,4.9749,4.9747,4.9746,4.9695,4.9694,4.9694,0,0,0,0,0,0,0,0,0,0,0,0,0,4.9875,4.9903,4.9871,4.9829,4.9825,4.9822,4.9821,4.982,4.9751,4.9749,4.9747,4.9745,4.9695,4.9694,4.9694,4.9727,0,0,4.9693,4.9693,0,0,0,0,0,0,0,0,4.9877,4.9874,4.9836,4.9832,4.9827,4.979,4.9813,4.9789,4.9751,4.9779,4.9746,4.9744,4.9728,4.9724,4.9719,4.9725,4.9723,4.9693,4.9692,4.9692,4.9692,0,0,0,0,0,0,0,4.9879,4.9876,4.9851,4.9835,4.983,4.9812,4.9806,4.9808,4.9764,4.9776,4.9771,4.9766,4.9725,4.972,4.9717,4.9722,4.9693,4.9692,4.9692,4.9692,4.9752,4.9754,0,0,0,0,0,0,4.9887,4.9878,4.9853,4.985,4.9848,4.9813,4.9806,4.9804,4.9764,4.9756,4.9768,4.9763,4.9721,4.9718,4.9715,4.9751,4.9692,4.9692,4.9692,4.975,4.9753,4.9755,0,0,0,0,0,0,4.9888,4.9886,4.9855,4.9862,4.9857,4.9814,4.9812,4.9804,4.9798,4.9757,4.9749,4.977,4.972,4.9716,4.9725,4.9748,4.9692,4.9691,4.9748,4.9751,4.9754,4.9824,0,0,0,0,0,0,4.989,4.9887,4.9899,4.9863,4.9857,4.9866,4.9813,4.9804,4.9798,4.9791,4.9758,4.975,4.9718,4.9726,4.9725,4.9747,4.9691,4.9746,4.9749,4.9753,4.9819,4.9829,4.9837,0,0,0,0,0,4.9891,4.9921,4.99,4.9897,4.9872,4.9867,4.9864,4.9826,4.98,4.9812,4.9786,4.9751,4.9746,4.9727,4.9725,4.9748,4.9744,4.9748,4.9752,4.9815,4.9827,4.9836,0,0,0,0,0,0,4.996,4.9915,4.9892,4.9911,4.9894,4.9855,4.9869,4.984,4.9829,4.9823,4.9777,4.977,4.9784,4.9767,4.9747,4.9778,4.974,4.9744,4.9788,4.9799,4.9808,4.9811,4.9691,0,0,0,0,0,4.9978,4.9978,4.9939,4.9959,4.9952,4.9912,4.9909,4.9882,4.9861,4.9854,4.9828,4.9809,4.9803,4.98,4.9793,4.9817,4.9808,4.9831,4.984,4.9847,4.9851,4.9861,4.9871,4.9768,4.9768,4.9768,0,0,5.0013,4.9989,4.9992,4.9972,4.9956,4.9957,4.9906,4.991,4.991,4.9854,4.9861,4.9842,4.9818,4.9834,4.984,4.982,4.9877,4.9852,4.9859,4.9858,4.9867,4.9876,4.9885,4.9771,4.977,4.977,0,0,5.0079,5.0061,5.0076,5.006,5.0036,5.001,5.0013,4.998,4.9965,4.9971,4.9929,4.9929,4.992,4.9904,4.9895,4.9956,4.9923,4.9955,5.0,5.0011,5.0019,5.0026,5.0047,5.0055,4.9959,4.9959,4.9959,0,5.0127,5.0127,5.0087,5.0093,5.0085,5.0036,5.005,5.0037,5.0011,5.0007,4.9985,4.9972,4.9953,4.9965,4.998,4.9974,4.9976,4.9958,5.0021,5.0028,5.0034,5.0053,5.0061,4.9963,4.9962,4.9962,4.9961,0,5.0186,5.0187,5.0202,5.0178,5.0173,5.0183,5.0144,5.0143,5.0117,5.0093,5.01,5.0075,5.0061,5.0062,5.0036,5.007,5.0058,5.003,4.9991,5.0048,5.0065,5.0072,4.9968,4.9967,4.9966,4.9965,0,0,5.0293,5.0248,5.0254,5.0243,5.0212,5.0212,5.022,5.0207,5.0206,5.0191,5.0195,5.0189,5.0162,5.0152,5.0124,5.0134,5.0183,5.0104,5.0102,5.0118,5.0218,5.0239,5.0248,5.0162,5.0163,5.0164,5.0219,0,5.0352,5.0363,5.0328,5.0347,5.0347,5.03,5.0307,5.0289,5.0267,5.0263,5.0239,5.0235,5.02,5.0194,5.0201,5.0175,5.0202,5.0171,5.0165,5.0165,5.0171,5.0257,5.0279,5.0333,5.0226,5.0227,5.0228,0,5.0422,5.041,5.043,5.0398,5.0397,5.0404,5.0389,5.0386,5.0365,5.0348,5.0337,5.0305,5.031,5.0273,5.0279,5.0259,5.0254,5.0241,5.0242,5.0239,5.0199,5.0256,5.0349,5.0357,5.0238,5.0237,5.0237,0,5.0496,5.0486,5.0496,5.0488,5.0452,5.0457,5.0443,5.0419,5.0414,5.0401,5.0396,5.0384,5.0377,5.0368,5.0333,5.031,5.0343,5.0304,5.0328,5.0329,5.0336,5.0336,5.0429,5.0335,5.0335,5.0335,5.0335,0,5.0565,5.0579,5.0529,5.0536,5.055,5.0509,5.0524,5.0504,5.0484,5.0485,5.0444,5.0446,5.04,5.0397,5.037,5.0378,5.0375,5.0361,5.0354,5.0364,5.0366,5.036,5.0355,5.0337,5.0337,5.0336,5.0336,0,5.0651,5.0618,5.0626,5.0591,5.0583,5.0595,5.0564,5.0569,5.0544,5.0546,5.0545,5.0506,5.05,5.0465,5.045,5.0432,5.045,5.0435,5.0457,5.0452,5.0478,5.0476,5.057,5.058,5.0481,5.0482,5.0483,0,5.0696,5.0706,5.0672,5.0671,5.0658,5.0655,5.0649,5.061,5.0606,5.0582,5.0589,5.058,5.057,5.0563,5.0533,5.0522,5.0506,5.054,5.0504,5.0514,5.0505,5.0505,5.0505,5.0547,5.0549,5.055,5.055,0,5.0781,5.0764,5.0757,5.0745,5.074,5.0728,5.0714,5.0715,5.0671,5.0668,5.0662,5.0655,5.0641,5.0632,5.0615,5.0599,5.0567,5.0562,5.0567,5.0578,5.059,5.0582,5.0477,5.056,5.0559,5.0558,5.0558,5.0557,5.0847,5.0853,5.083,5.0824,5.081,5.0798,5.08,5.0776,5.077,5.0756,5.0733,5.073,5.0707,5.0682,5.0669,5.0665,5.0647,5.0654,5.0656,5.0658,5.0663,5.0591,5.0662,5.0662,5.0662,5.0661,5.0661,0,5.0928,5.0911,5.0906,5.0888,5.0883,5.0855,5.0838,5.0836,5.0834,5.0816,5.0808,5.08,5.0791,5.0761,5.0749,5.0752,5.0737,5.075,5.0749,5.0746,5.0681,5.0677,5.0762,5.0762,5.0762,5.0762,5.0762,5.0762,5.097,5.0978,5.0959,5.096,5.0943,5.094,5.0933,5.0921,5.0907,5.0901,5.0893,5.0874,5.0851,5.0837,5.0828,5.0819,5.0816,5.0834,5.082,5.076,5.075,5.0741,5.0737,5.0834,5.0834,5.0885,5.0885,5.0886]}]]